EW1710 Weather Reports


Display with metric or nautical units.
time (UTC)temp
F
wind
direction
speed
MPH
gust
MPH
rain 1hr
in
rain 24hr
in
rain mn
in
humidity
%
barometer
mb
20260504034243 51 159 1.0 1.0 0.00 0.00 0.00 58 1013.4
20260504033740 51 146 1.0 1.0 0.00 0.00 0.00 57 1013.3
20260504033238 51 162 0.0 0.0 0.00 0.00 0.00 57 1013.5
20260504032734 51 218 1.0 2.0 0.00 0.00 0.00 57 1013.4
20260504032231 51 139 0.0 1.0 0.00 0.00 0.00 58 1013.5
20260504031728 51 191 2.0 2.0 0.00 0.00 0.00 57 1013.7
20260504031226 51 167 1.0 1.0 0.00 0.00 0.00 56 1013.6
20260504030721 51 134 1.0 1.0 0.00 0.00 0.00 57 1013.7
20260504030219 51 169 3.0 5.0 0.00 0.00 0.00 57 1013.7
20260504025715 51 151 0.0 0.0 0.00 0.00 0.00 58 1013.8
20260504025212 51 179 2.0 2.0 0.00 0.00 0.00 57 1013.9
20260504024709 51 161 1.0 1.0 0.00 0.00 0.00 58 1013.8
20260504024205 51 70 1.0 1.0 0.00 0.00 0.00 58 1013.8
20260504023702 51 157 1.0 1.0 0.00 0.00 0.00 59 1014.0
20260504023158 51 169 0.0 0.0 0.00 0.00 0.00 58 1013.9
20260504022654 51 342 0.0 0.0 0.00 0.00 0.00 58 1014.1
20260504022150 51 110 0.0 0.0 0.00 0.00 0.00 58 1014.0
20260504021649 51 178 2.0 2.0 0.00 0.00 0.00 58 1014.0
20260504021145 51 253 2.0 2.0 0.00 0.00 0.00 57 1014.2
20260504020642 51 289 2.0 1.0 0.00 0.00 0.00 57 1014.1
20260504020138 51 6 1.0 2.0 0.00 0.00 0.00 56 1014.2
20260504015635 51 158 1.0 1.0 0.00 0.00 0.00 55 1014.1
20260504015131 52 346 5.0 6.0 0.00 0.00 0.00 53 1013.9
20260504014627 52 200 2.0 3.0 0.00 0.00 0.00 52 1014.1
20260504014124 51 321 4.0 5.0 0.00 0.00 0.00 51 1013.9
20260504013622 49 334 2.0 2.0 0.00 0.00 0.00 55 1013.9
20260504013119 48 20 2.0 2.0 0.00 0.00 0.00 60 1013.7
20260504012616 48 152 0.0 0.0 0.00 0.00 0.00 61 1013.6
20260504012114 49 152 0.0 0.0 0.00 0.00 0.00 58 1013.4
20260504011611 50 152 0.0 1.0 0.00 0.00 0.00 55 1013.4
20260504011107 50 152 0.0 0.0 0.00 0.00 0.00 54 1013.4
20260504010602 51 152 0.0 0.0 0.00 0.00 0.00 51 1013.3
20260504010059 51 152 0.0 0.0 0.00 0.00 0.00 49 1013.6
20260504005555 52 152 0.0 0.0 0.00 0.00 0.00 49 1013.6
20260504005053 52 152 0.0 0.0 0.00 0.00 0.00 48 1013.6
20260504004551 53 126 0.0 0.0 0.00 0.00 0.00 46 1013.5
20260504004047 53 178 0.0 0.0 0.00 0.00 0.00 45 1013.3
20260504003543 54 178 0.0 0.0 0.00 0.00 0.00 44 1013.3
20260504003040 55 172 1.0 1.0 0.00 0.00 0.00 42 1013.2
20260504002537 55 234 2.0 2.0 0.00 0.00 0.00 42 1013.3
20260504002035 55 327 1.0 2.0 0.00 0.00 0.00 41 1013.4
20260504001532 56 148 3.0 5.0 0.00 0.00 0.00 40 1013.2
20260504001028 56 167 3.0 3.0 0.00 0.00 0.00 40 1013.3
20260504000525 57 97 0.0 0.0 0.00 0.00 0.00 41 1013.3
20260504000023 57 165 0.0 0.0 0.00 0.00 0.00 40 1013.3
20260503235521 57 51 1.0 1.0 0.00 0.00 0.00 40 1013.4
20260503235017 57 313 2.0 2.0 0.00 0.00 0.00 39 1013.4
20260503234515 57 239 5.0 6.0 0.00 0.00 0.00 38 1013.5
20260503234014 58 218 3.0 6.0 0.00 0.00 0.00 38 1013.2
20260503233509 58 241 2.0 2.0 0.00 0.00 0.00 37 1013.3
20260503233005 58 267 1.0 2.0 0.00 0.00 0.00 39 1013.6
20260503232502 58 223 4.0 6.0 0.00 0.00 0.00 37 1013.7
20260503232001 58 218 3.0 3.0 0.00 0.00 0.00 37 1013.3
20260503231458 58 300 3.0 3.0 0.00 0.00 0.00 38 1013.5
20260503230954 58 262 2.0 3.0 0.00 0.00 0.00 38 1013.5
20260503230451 58 259 2.0 2.0 0.00 0.00 0.00 38 1013.6
20260503225948 58 252 3.0 5.0 0.00 0.00 0.00 39 1013.4
20260503225445 58 205 1.0 2.0 0.00 0.00 0.00 39 1013.6
20260503224941 59 270 4.0 5.0 0.00 0.00 0.00 37 1013.6
20260503224438 59 268 5.0 6.0 0.00 0.00 0.00 37 1013.6
20260503223936 58 6 2.0 2.0 0.00 0.00 0.00 38 1013.8
20260503223433 59 321 3.0 5.0 0.00 0.00 0.00 41 1013.8
20260503222928 59 288 1.0 1.0 0.00 0.00 0.00 39 1013.8
20260503222427 59 289 3.0 2.0 0.00 0.00 0.00 38 1013.8
20260503221925 59 65 1.0 1.0 0.00 0.00 0.00 40 1013.8
20260503221423 61 244 1.0 2.0 0.00 0.00 0.00 37 1014.0
20260503220920 61 111 2.0 2.0 0.00 0.00 0.00 37 1013.8
20260503220416 61 200 3.0 3.0 0.00 0.00 0.00 37 1013.8
20260503215913 61 237 4.0 8.0 0.00 0.00 0.00 34 1013.6
20260503215410 60 182 1.0 1.0 0.00 0.00 0.00 40 1013.6
20260503214908 60 348 2.0 2.0 0.00 0.00 0.00 38 1013.9
20260503214405 60 199 4.0 7.0 0.00 0.00 0.00 36 1014.0
20260503213902 60 207 1.0 1.0 0.00 0.00 0.00 38 1013.7
20260503213400 60 340 2.0 2.0 0.00 0.00 0.00 38 1013.7
20260503212856 60 150 2.0 3.0 0.00 0.00 0.00 38 1013.9
20260503212355 61 230 3.0 3.0 0.00 0.00 0.00 38 1013.8
20260503211851 62 40 3.0 3.0 0.00 0.00 0.00 36 1013.9
20260503211348 60 197 1.0 1.0 0.00 0.00 0.00 35 1013.7
20260503210843 60 342 2.0 3.0 0.00 0.00 0.00 39 1013.8
20260503210341 60 235 5.0 7.0 0.00 0.00 0.00 37 1013.8
20260503205835 60 178 1.0 1.0 0.00 0.00 0.00 39 1013.6
20260503205332 60 337 3.0 5.0 0.00 0.00 0.00 37 1013.7
20260503204829 60 155 5.0 8.0 0.00 0.00 0.00 36 1013.9
20260503204327 61 254 3.0 3.0 0.00 0.00 0.00 35 1014.1
20260503203824 62 165 5.0 7.0 0.00 0.00 0.00 33 1013.9
20260503203321 60 184 2.0 2.0 0.00 0.00 0.00 35 1013.8
20260503202818 62 242 4.0 6.0 0.00 0.00 0.00 33 1014.1
20260503202316 62 31 3.0 3.0 0.00 0.00 0.00 33 1013.7
20260503201814 61 261 4.0 5.0 0.00 0.00 0.00 36 1014.1
20260503201310 60 254 1.0 2.0 0.00 0.00 0.00 39 1014.2
20260503200808 61 177 5.0 10.0 0.00 0.00 0.00 36 1013.9
20260503200303 60 185 8.0 13.0 0.00 0.00 0.00 35 1014.1
20260503195801 62 293 3.0 3.0 0.00 0.00 0.00 35 1014.1
20260503195257 62 216 1.0 2.0 0.00 0.00 0.00 36 1014.6
20260503194755 61 24 1.0 1.0 0.00 0.00 0.00 38 1014.2
20260503194250 60 300 5.0 6.0 0.00 0.00 0.00 38 1014.5
20260503193747 60 288 4.0 6.0 0.00 0.00 0.00 36 1014.7
20260503193243 61 340 5.0 10.0 0.00 0.00 0.00 37 1015.1
20260503192739 62 310 3.0 3.0 0.00 0.00 0.00 38 1015.1
20260503192234 60 258 3.0 5.0 0.00 0.00 0.00 39 1014.8
20260503191731 62 327 9.0 13.0 0.00 0.00 0.00 34 1015.0
20260503191228 62 236 6.0 7.0 0.00 0.00 0.00 36 1015.0
20260503190725 61 236 4.0 6.0 0.00 0.00 0.00 38 1015.1
20260503190222 61 252 7.0 9.0 0.00 0.00 0.00 35 1015.2
20260503185719 62 221 2.0 2.0 0.00 0.00 0.00 36 1015.2
20260503185214 62 269 1.0 1.0 0.00 0.00 0.00 36 1015.3
20260503184709 62 11 6.0 8.0 0.00 0.00 0.00 34 1015.4
20260503184206 62 303 8.0 10.0 0.00 0.00 0.00 37 1015.2
20260503183702 61 175 3.0 5.0 0.00 0.00 0.00 36 1015.4
20260503183200 61 278 3.0 3.0 0.00 0.00 0.00 36 1015.6
20260503182658 60 180 1.0 1.0 0.00 0.00 0.00 37 1015.5
20260503182156 59 238 7.0 14.0 0.00 0.00 0.00 36 1015.5
20260503181652 59 346 4.0 5.0 0.00 0.00 0.00 36 1015.7
20260503181149 60 282 4.0 5.0 0.00 0.00 0.00 36 1015.6
20260503180646 59 351 11.0 14.0 0.00 0.00 0.00 35 1015.4
20260503180144 60 319 8.0 8.0 0.00 0.00 0.00 37 1015.8
20260503175641 59 220 3.0 5.0 0.00 0.00 0.00 36 1015.8
20260503175138 59 334 5.0 8.0 0.00 0.00 0.00 41 1015.7
20260503174634 59 324 3.0 3.0 0.00 0.00 0.00 40 1016.0
20260503174132 58 326 6.0 7.0 0.00 0.00 0.00 40 1016.0
20260503173626 58 8 6.0 8.0 0.00 0.00 0.00 41 1016.0
20260503173123 60 302 11.0 13.0 0.00 0.00 0.00 38 1016.1
20260503172620 59 293 3.0 5.0 0.00 0.00 0.00 40 1016.2
20260503172118 60 185 3.0 5.0 0.00 0.00 0.00 43 1016.0
20260503171614 60 343 3.0 6.0 0.00 0.00 0.00 42 1016.5
20260503171112 59 268 2.0 2.0 0.00 0.00 0.00 46 1016.6
20260503170609 59 343 5.0 6.0 0.00 0.00 0.00 39 1016.5
20260503170105 59 316 1.0 2.0 0.00 0.00 0.00 46 1016.2
20260503151000 55 210 5.0 7.0 0.00 0.00 0.00 39 1017.5
20260503150456 55 179 5.0 6.0 0.00 0.00 0.00 41 1017.3
20260503131350 48 352 2.0 1.0 0.00 0.00 0.00 47 1018.1
20260503130847 49 175 1.0 2.0 0.00 0.00 0.00 46 1018.2
20260503130344 49 189 1.0 1.0 0.00 0.00 0.00 47 1018.1
20260503110738 37 309 1.0 1.0 0.00 0.00 0.00 70 1017.4
20260503110235 37 242 0.0 0.0 0.00 0.00 0.00 71 1017.7
20260503100156 36 286 1.0 1.0 0.00 0.00 0.00 76 1017.2
20260503090115 36 85 0.0 0.0 0.00 0.00 0.00 77 1017.5
20260503081545 36 213 0.0 0.0 0.00 0.00 0.00 79 1017.5
20260503081042 36 197 0.0 0.0 0.00 0.00 0.00 78 1017.5
20260503080538 36 237 0.0 0.0 0.00 0.00 0.00 78 1017.6
20260503072512 36 251 0.0 0.0 0.00 0.00 0.00 79 1017.3
20260503072009 36 241 1.0 1.0 0.00 0.00 0.00 80 1017.4
20260503071506 36 331 0.0 0.0 0.00 0.00 0.00 80 1017.5
20260503071003 36 309 0.0 0.0 0.00 0.00 0.00 80 1017.4
20260503070459 36 252 0.0 0.0 0.00 0.00 0.00 80 1017.4
20260503054922 35 139 0.0 0.0 0.00 0.00 0.00 86 1017.6
20260503054418 35 152 0.0 0.0 0.00 0.00 0.00 87 1017.6
20260503053917 35 169 0.0 0.0 0.00 0.00 0.00 87 1017.5
20260503053414 35 162 0.0 0.0 0.00 0.00 0.00 87 1017.6
20260503052910 35 162 0.0 0.0 0.00 0.00 0.00 86 1017.8
20260503052408 35 162 0.0 0.0 0.00 0.00 0.00 86 1017.8
20260503051904 35 162 0.0 0.0 0.00 0.00 0.00 86 1017.8
20260503051400 35 162 0.0 0.0 0.00 0.00 0.00 85 1017.9
20260503050857 35 162 0.0 0.0 0.00 0.00 0.00 85 1017.7
20260503050353 36 162 0.0 0.0 0.00 0.00 0.00 84 1017.6
20260503045851 36 162 0.0 0.0 0.00 0.00 0.00 83 1017.8
20260503045348 37 162 0.0 0.0 0.00 0.00 0.00 82 1017.9
20260503044845 37 162 0.0 0.0 0.00 0.00 0.00 80 1017.9
20260503044342 37 161 0.0 0.0 0.00 0.00 0.00 79 1017.9
20260503043839 38 161 0.0 0.0 0.00 0.00 0.00 78 1017.8
20260503043336 38 161 0.0 0.0 0.00 0.00 0.00 77 1017.8
20260503042832 39 151 0.0 0.0 0.00 0.00 0.00 76 1017.7
20260503042329 39 191 0.0 0.0 0.00 0.00 0.00 76 1017.9
20260503041825 39 195 0.0 0.0 0.00 0.00 0.00 75 1017.9
20260503041322 40 245 0.0 0.0 0.00 0.00 0.00 75 1018.2
20260503040820 40 239 0.0 0.0 0.00 0.00 0.00 75 1018.0
20260503040317 40 193 0.0 0.0 0.00 0.00 0.00 76 1017.9
20260503035814 40 194 0.0 1.0 0.00 0.13 0.13 76 1018.0
20260503035311 39 168 1.0 1.0 0.00 0.13 0.13 76 1017.8
20260503034808 39 159 0.0 0.0 0.00 0.13 0.13 75 1018.1